FW7227 Weather Reports


time (UTC)temp
C
wind
direction
speed
KPH
gust
KPH
rain 1hr
cm
rain 24hr
cm
rain mn
cm
humidity
%
barometer
mb
20220927010558 10 0 0.0 6.4 0.00 0.08 0.08 90 993.1
20220927010058 10 178 0.0 6.4 0.00 0.08 0.08 90 993.1
20220927005555 10 0 0.0 6.4 0.00 0.08 0.08 90 993.1
20220927005058 10 177 0.0 6.4 0.00 0.08 0.08 90 993.2
20220927004611 10 0 0.0 6.4 0.00 0.08 0.08 89 993.2
20220927004054 10 178 0.0 4.8 0.00 0.08 0.08 89 993.4
20220927003601 10 0 0.0 6.4 0.00 0.08 0.08 89 993.5
20220927003209 10 178 0.0 6.4 0.00 0.08 0.08 88 993.6
20220927002554 10 178 1.6 8.0 0.00 0.08 0.08 88 993.6
20220927002101 10 175 1.6 8.0 0.00 0.08 0.08 88 993.6
20220927001603 10 173 0.0 8.0 0.03 0.08 0.08 88 993.7
20220927001059 10 166 1.6 9.7 0.05 0.08 0.08 88 993.7
20220927000554 10 0 1.6 9.7 0.05 0.08 0.08 88 993.8
20220927000101 10 0 1.6 9.7 0.08 0.08 0.08 87 993.9
20220926235557 10 190 1.6 9.7 0.08 0.08 0.08 87 993.8
20220926235103 10 0 1.6 11.3 0.08 0.08 0.08 87 993.9
20220926234606 10 164 3.2 11.3 0.08 0.08 0.08 87 993.9
20220926234053 10 182 3.2 8.0 0.08 0.08 0.08 86 994.0
20220926233556 10 177 1.6 6.4 0.05 0.05 0.05 86 994.0
20220926233101 10 180 0.0 9.7 0.05 0.05 0.05 85 994.0
20220926232555 10 182 3.2 9.7 0.05 0.05 0.05 84 994.2
20220926232057 10 166 1.6 9.7 0.05 0.05 0.05 83 994.3
20220926231601 11 0 1.6 11.3 0.03 0.03 0.03 83 994.3
20220926231057 11 220 3.2 14.5 0.00 0.00 0.00 81 994.4
20220926230557 11 198 4.8 14.5 0.00 0.00 0.00 81 994.5
20220926230100 11 177 4.8 16.1 0.00 0.00 0.00 79 994.6
20220926225554 11 199 4.8 16.1 0.00 0.00 0.00 78 994.7
20220926225057 11 184 4.8 17.7 0.00 0.00 0.00 77 994.7
20220926224559 11 198 8.0 17.7 0.00 0.00 0.00 76 994.6
20220926224058 11 193 8.0 16.1 0.00 0.00 0.00 75 994.8
20220926223557 11 173 6.4 19.3 0.00 0.00 0.00 75 994.8
20220926223117 11 207 9.7 19.3 0.00 0.00 0.00 75 994.9
20220926222557 11 192 8.0 19.3 0.00 0.00 0.00 75 995.0
20220926222103 11 176 8.0 25.7 0.00 0.00 0.00 74 995.1
20220926221600 11 232 9.7 25.7 0.00 0.00 0.00 74 995.2
20220926221053 11 231 8.0 19.3 0.00 0.00 0.00 74 995.2
20220926220612 11 163 6.4 17.7 0.00 0.00 0.00 74 995.3
20220926220107 11 167 4.8 19.3 0.00 0.00 0.00 74 995.5
20220926215600 11 179 6.4 19.3 0.00 0.00 0.00 73 995.5
20220926215057 11 209 9.7 22.5 0.00 0.00 0.00 73 995.7
20220926214605 11 165 6.4 22.5 0.00 0.00 0.00 74 995.7
20220926214054 11 227 9.7 22.5 0.00 0.00 0.00 74 995.8
20220926213559 11 210 11.3 22.5 0.00 0.00 0.00 73 995.8
20220926213105 11 163 9.7 22.5 0.00 0.00 0.00 73 995.9
20220926212557 11 171 9.7 22.5 0.00 0.00 0.00 73 995.9
20220926212101 11 185 11.3 22.5 0.00 0.00 0.00 73 996.0
20220926211600 11 190 9.7 17.7 0.00 0.00 0.00 72 996.0
20220926211105 12 158 4.8 17.7 0.00 0.00 0.00 72 996.1
20220926210556 12 169 6.4 19.3 0.00 0.00 0.00 72 996.2
20220926210100 12 218 6.4 22.5 0.00 0.00 0.00 72 996.2
20220926205554 12 219 4.8 22.5 0.00 0.00 0.00 72 996.2
20220926205057 12 141 8.0 22.5 0.00 0.00 0.00 71 996.2
20220926204605 12 207 11.3 22.5 0.00 0.00 0.00 71 996.4
20220926204057 12 179 11.3 20.9 0.00 0.00 0.00 70 996.5
20220926203602 12 222 6.4 25.7 0.00 0.00 0.00 70 996.5
20220926203132 12 171 4.8 25.7 0.00 0.00 0.00 71 996.6
20220926202555 12 252 8.0 17.7 0.00 0.00 0.00 70 996.7
20220926202058 12 171 6.4 20.9 0.00 0.00 0.00 71 996.8
20220926201606 12 211 9.7 20.9 0.00 0.00 0.00 70 996.8
20220926201059 12 202 6.4 19.3 0.00 0.00 0.00 71 996.9
20220926200600 12 206 6.4 25.7 0.00 0.00 0.00 71 996.9
20220926200125 12 199 4.8 25.7 0.00 0.00 0.00 71 997.0
20220926195556 12 179 8.0 16.1 0.00 0.00 0.00 71 997.0
20220926195054 12 188 1.6 16.1 0.00 0.00 0.00 71 997.1
20220926194558 12 182 8.0 16.1 0.00 0.00 0.00 70 997.2
20220926194055 12 138 4.8 12.9 0.00 0.00 0.00 71 997.2
20220926193559 12 154 6.4 12.9 0.00 0.00 0.00 70 997.4
20220926193149 12 175 4.8 12.9 0.00 0.00 0.00 70 997.4
20220926192555 12 208 3.2 16.1 0.00 0.00 0.00 71 997.6
20220926192055 11 178 6.4 17.7 0.00 0.00 0.00 71 997.6
20220926191602 11 183 4.8 20.9 0.00 0.00 0.00 71 997.6
20220926191057 11 210 6.4 20.9 0.00 0.00 0.00 71 997.6
20220926190555 11 239 4.8 19.3 0.00 0.00 0.00 72 997.7
20220926190103 12 195 9.7 19.3 0.00 0.00 0.00 72 997.7
20220926185555 12 193 4.8 11.3 0.00 0.00 0.00 72 997.7
20220926185057 12 221 4.8 12.9 0.00 0.00 0.00 71 997.7
20220926184559 12 214 6.4 20.9 0.00 0.00 0.00 71 997.7
20220926184055 12 220 4.8 20.9 0.00 0.00 0.00 70 997.8
20220926183556 12 178 3.2 14.5 0.00 0.00 0.00 69 997.8
20220926183110 12 213 6.4 20.9 0.00 0.00 0.00 69 997.8
20220926182559 12 192 6.4 20.9 0.00 0.00 0.00 69 997.9
20220926182103 12 186 6.4 17.7 0.00 0.00 0.00 68 997.9
20220926181601 12 172 8.0 14.5 0.00 0.00 0.00 69 998.0
20220926181054 12 184 4.8 20.9 0.00 0.00 0.00 69 998.0
20220926180601 12 188 8.0 20.9 0.00 0.00 0.00 69 998.1
20220926180100 12 229 8.0 22.5 0.00 0.00 0.00 69 998.1
20220926175558 12 242 8.0 27.4 0.00 0.00 0.00 69 998.2
20220926175056 12 206 12.9 27.4 0.00 0.00 0.00 69 998.3
20220926174605 12 205 4.8 19.3 0.00 0.00 0.00 70 998.3
20220926174056 12 236 6.4 19.3 0.00 0.00 0.00 70 998.3
20220926173556 12 227 8.0 19.3 0.00 0.00 0.00 70 998.4
20220926173119 12 219 6.4 24.1 0.00 0.00 0.00 69 998.4
20220926172600 12 198 11.3 24.1 0.00 0.00 0.00 70 998.5
20220926172058 12 209 9.7 22.5 0.00 0.00 0.00 70 998.5
20220926171601 12 176 9.7 22.5 0.00 0.00 0.00 70 998.4
20220926171056 12 202 9.7 22.5 0.00 0.00 0.00 70 998.5
20220926170556 12 198 6.4 19.3 0.00 0.00 0.00 70 998.5
20220926170104 12 214 8.0 19.3 0.00 0.00 0.00 70 998.5
20220926165557 12 208 4.8 19.3 0.00 0.00 0.00 71 998.6
20220926165056 12 230 4.8 20.9 0.00 0.00 0.00 71 998.6
20220926164601 12 232 6.4 20.9 0.00 0.00 0.00 70 998.7
20220926164056 12 227 9.7 22.5 0.00 0.00 0.00 70 998.7
20220926163554 12 255 8.0 22.5 0.00 0.00 0.00 70 998.8
20220926163057 12 211 9.7 24.1 0.00 0.00 0.00 70 998.7
20220926162554 12 188 11.3 27.4 0.00 0.00 0.00 70 998.8
20220926162056 12 197 8.0 29.0 0.00 0.00 0.00 70 998.8
20220926161618 12 243 12.9 29.0 0.00 0.00 0.00 70 998.9
20220926161056 12 210 6.4 22.5 0.00 0.00 0.00 71 998.8
20220926160554 12 184 8.0 19.3 0.00 0.00 0.00 71 998.9
20220926160057 12 169 8.0 19.3 0.00 0.00 0.00 72 998.8
20220926155556 12 185 9.7 19.3 0.00 0.00 0.00 72 999.0
20220926155057 12 209 4.8 19.3 0.00 0.00 0.00 71 999.0
20220926154603 12 202 4.8 19.3 0.00 0.00 0.00 71 999.1
20220926154059 12 188 8.0 22.5 0.00 0.00 0.00 73 999.2
20220926153600 12 240 8.0 22.5 0.00 0.00 0.00 73 999.3
20220926153125 12 195 8.0 22.5 0.00 0.00 0.00 73 999.4
20220926152557 12 209 8.0 22.5 0.00 0.00 0.00 74 999.4
20220926152103 12 200 6.4 22.5 0.00 0.00 0.00 73 999.5
20220926151609 12 219 8.0 24.1 0.00 0.00 0.00 72 999.6
20220926151057 12 200 8.0 24.1 0.00 0.00 0.00 71 999.6
20220926150601 13 232 8.0 22.5 0.00 0.00 0.00 71 999.6
20220926150107 13 257 9.7 20.9 0.00 0.00 0.00 70 999.6
20220926145556 13 177 8.0 19.3 0.00 0.00 0.00 71 999.6
20220926145057 13 210 6.4 19.3 0.00 0.00 0.00 71 999.8
20220926144559 13 211 6.4 19.3 0.00 0.00 0.00 71 999.7
20220926144057 13 227 8.0 19.3 0.00 0.00 0.00 71 999.8
20220926143557 13 220 4.8 16.1 0.00 0.00 0.00 72 1000.0
20220926143059 13 201 4.8 19.3 0.00 0.00 0.00 72 999.9
20220926142557 13 203 6.4 19.3 0.00 0.00 0.00 72 999.9
20220926142105 13 227 6.4 19.3 0.00 0.00 0.00 71 1000.1
20220926141602 13 228 8.0 22.5 0.00 0.00 0.00 71 1000.1
20220926141055 13 229 9.7 25.7 0.00 0.00 0.00 70 1000.2
20220926140554 13 210 12.9 25.7 0.00 0.00 0.00 68 1000.3
20220926140102 13 234 6.4 29.0 0.00 0.00 0.00 67 1000.4
20220926135554 13 232 12.9 29.0 0.00 0.00 0.00 66 1000.3
20220926135056 13 246 6.4 25.7 0.00 0.00 0.00 66 1000.5
20220926134641 13 229 9.7 27.4 0.00 0.00 0.00 65 1000.5
20220926134056 13 259 8.0 27.4 0.00 0.00 0.00 64 1000.6
20220926133556 13 239 14.5 27.4 0.00 0.00 0.00 63 1000.7
20220926133100 13 232 14.5 27.4 0.00 0.00 0.00 64 1000.8
20220926132558 13 232 12.9 27.4 0.00 0.00 0.00 64 1000.8
20220926132056 13 215 9.7 22.5 0.00 0.00 0.00 65 1000.8
20220926131612 13 232 6.4 27.4 0.00 0.00 0.00 63 1000.8
20220926131105 13 237 12.9 27.4 0.00 0.00 0.00 63 1000.9
20220926130606 14 211 14.5 30.6 0.00 0.00 0.00 63 1000.9
20220926130104 14 246 12.9 33.8 0.00 0.00 0.00 63 1000.9
20220926125556 14 213 12.9 33.8 0.00 0.00 0.00 61 1000.9
20220926125059 14 241 9.7 38.6 0.00 0.00 0.00 61 1001.0
20220926124612 14 231 17.7 38.6 0.00 0.00 0.00 60 1001.0
20220926124055 14 258 11.3 27.4 0.00 0.00 0.00 61 1001.0
20220926123558 14 252 11.3 27.4 0.00 0.00 0.00 60 1001.1
20220926123100 15 250 16.1 27.4 0.00 0.00 0.00 59 1001.2
20220926122556 15 209 11.3 27.4 0.00 0.00 0.00 61 1001.2
20220926122055 15 238 11.3 27.4 0.00 0.00 0.00 61 1001.3
20220926121559 15 188 12.9 27.4 0.00 0.00 0.00 60 1001.4
20220926121054 15 219 6.4 24.1 0.00 0.00 0.00 61 1001.4
20220926120554 15 163 12.9 27.4 0.00 0.00 0.00 61 1001.5
20220926120112 15 226 11.3 29.0 0.00 0.00 0.00 60 1001.5
20220926115558 15 219 11.3 29.0 0.00 0.00 0.00 60 1001.6
20220926115057 15 201 6.4 24.1 0.00 0.00 0.00 62 1001.7
20220926114606 15 244 11.3 24.1 0.00 0.00 0.00 62 1001.8
20220926114059 15 231 12.9 25.7 0.00 0.00 0.00 62 1001.8
20220926113556 15 201 12.9 33.8 0.00 0.00 0.00 60 1001.9
20220926113101 15 230 14.5 33.8 0.00 0.00 0.00 60 1001.9
20220926112558 15 241 11.3 33.8 0.00 0.00 0.00 61 1002.0
20220926112057 15 229 11.3 33.8 0.00 0.00 0.00 62 1002.0
20220926111629 15 221 8.0 25.7 0.00 0.00 0.00 62 1002.1
20220926111055 15 252 11.3 24.1 0.00 0.00 0.00 61 1002.2
20220926110558 15 258 11.3 30.6 0.00 0.00 0.00 61 1002.2
20220926110130 15 223 17.7 30.6 0.00 0.00 0.00 61 1002.3
20220926105555 15 220 17.7 27.4 0.00 0.00 0.00 62 1002.4
20220926105057 15 236 11.3 29.0 0.00 0.00 0.00 65 1002.3
20220926104704 15 244 12.9 29.0 0.00 0.00 0.00 66 1002.4
20220926104055 14 233 9.7 25.7 0.00 0.00 0.00 68 1002.4
20220926103555 14 242 12.9 25.7 0.00 0.00 0.00 66 1002.5
20220926103105 14 241 14.5 24.1 0.00 0.00 0.00 66 1002.5
20220926102555 15 236 12.9 25.7 0.00 0.00 0.00 65 1002.7
20220926102058 15 248 14.5 25.7 0.00 0.00 0.00 64 1002.6
20220926101559 15 243 11.3 25.7 0.00 0.00 0.00 65 1002.6
20220926101057 15 202 12.9 29.0 0.00 0.00 0.00 64 1002.7
20220926100601 15 206 12.9 29.0 0.00 0.00 0.00 65 1002.8
20220926100102 15 220 9.7 29.0 0.00 0.00 0.00 67 1002.9
20220926095600 15 185 9.7 29.0 0.00 0.00 0.00 67 1002.8
20220926095056 14 198 12.9 30.6 0.00 0.00 0.00 68 1002.9
20220926094612 14 215 12.9 30.6 0.00 0.00 0.00 70 1003.0
20220926094105 13 232 12.9 29.0 0.00 0.00 0.00 69 1003.1
20220926093558 13 245 9.7 29.0 0.00 0.00 0.00 70 1003.1
20220926093100 13 223 12.9 30.6 0.00 0.00 0.00 71 1003.1
20220926092603 13 267 9.7 30.6 0.00 0.00 0.00 72 1003.3
20220926092055 13 228 11.3 29.0 0.00 0.00 0.00 72 1003.3
20220926091615 13 239 14.5 29.0 0.00 0.00 0.00 72 1003.3
20220926091055 13 214 8.0 22.5 0.00 0.00 0.00 73 1003.4
20220926090609 13 223 12.9 29.0 0.00 0.00 0.00 74 1003.4
20220926090114 12 243 12.9 29.0 0.00 0.00 0.00 75 1003.4
20220926085554 12 216 12.9 22.5 0.00 0.00 0.00 74 1003.5
20220926085058 12 196 11.3 20.9 0.00 0.00 0.00 75 1003.6
20220926084604 12 238 9.7 24.1 0.00 0.00 0.00 75 1003.7
20220926084055 12 219 9.7 24.1 0.00 0.00 0.00 76 1003.7
20220926083558 12 200 8.0 22.5 0.00 0.00 0.00 75 1003.8
20220926083118 12 238 9.7 22.5 0.00 0.00 0.00 77 1003.7
20220926082602 12 222 9.7 22.5 0.00 0.00 0.00 78 1003.8
20220926082100 12 232 9.7 22.5 0.00 0.00 0.00 78 1003.8
20220926081610 11 213 9.7 22.5 0.00 0.00 0.00 77 1004.0
20220926081057 11 242 12.9 22.5 0.00 0.00 0.00 79 1004.0
20220926080555 11 205 8.0 19.3 0.00 0.00 0.00 79 1004.0
20220926080125 11 207 8.0 17.7 0.00 0.00 0.00 80 1004.1
20220926075555 11 209 6.4 16.1 0.00 0.00 0.00 79 1004.0
20220926075054 11 242 6.4 16.1 0.00 0.00 0.00 79 1003.9
20220926074559 11 225 3.2 14.5 0.00 0.00 0.00 80 1004.1
20220926074055 11 216 3.2 14.5 0.00 0.00 0.00 80 1004.1
20220926073555 11 233 4.8 17.7 0.00 0.00 0.00 80 1004.2
20220926073112 11 211 0.0 17.7 0.00 0.00 0.00 81 1004.2
20220926072559 11 253 4.8 12.9 0.00 0.00 0.00 82 1004.2
20220926072057 11 219 3.2 12.9 0.00 0.00 0.00 82 1004.2
20220926071612 10 237 3.2 12.9 0.00 0.00 0.00 82 1004.2
20220926071055 10 225 6.4 14.5 0.00 0.00 0.00 83 1004.2
20220926070554 10 231 6.4 14.5 0.00 0.00 0.00 83 1004.2
20220926070127 10 221 4.8 14.5 0.00 0.00 0.00 84 1004.4
20220926065556 10 235 4.8 16.1 0.00 0.00 0.00 84 1004.4
20220926065059 10 0 6.4 16.1 0.00 0.00 0.00 86 1004.5
20220926064605 10 220 6.4 16.1 0.00 0.00 0.00 87 1004.5
20220926064057 10 221 1.6 14.5 0.00 0.00 0.00 87 1004.5
20220926063627 9 218 3.2 12.9 0.00 0.00 0.00 87 1004.4
20220926063058 9 0 4.8 12.9 0.00 0.00 0.00 88 1004.5
20220926062556 9 200 4.8 14.5 0.00 0.00 0.00 88 1004.6
20220926062056 9 206 4.8 16.1 0.00 0.00 0.00 88 1004.6
20220926061601 9 215 6.4 16.1 0.00 0.00 0.00 89 1004.6
20220926061055 8 192 4.8 14.5 0.00 0.00 0.00 89 1004.7
20220926060555 8 209 1.6 14.5 0.00 0.00 0.00 90 1004.8
20220926060100 8 224 3.2 14.5 0.00 0.00 0.00 90 1004.8
20220926055554 8 0 3.2 11.3 0.00 0.00 0.00 91 1004.8
20220926055058 8 231 3.2 11.3 0.00 0.00 0.00 91 1004.8
20220926054559 8 0 3.2 14.5 0.00 0.00 0.00 91 1004.8
20220926054054 8 257 4.8 14.5 0.00 0.00 0.00 92 1004.8
20220926053554 8 0 1.6 12.9 0.00 0.00 0.00 93 1004.9
20220926053101 8 217 1.6 12.9 0.00 0.00 0.00 93 1004.9
20220926052555 8 209 3.2 11.3 0.00 0.00 0.00 94 1005.0
20220926052059 8 198 0.0 4.8 0.00 0.00 0.00 94 1005.0
20220926051623 7 0 0.0 8.0 0.00 0.00 0.00 95 1005.1
20220926051059 7 0 0.0 8.0 0.00 0.00 0.00 95 1005.1
20220926050559 7 204 0.0 11.3 0.00 0.00 0.00 95 1005.1
20220926050132 7 218 1.6 11.3 0.00 0.00 0.00 95 1005.2
20220926045556 7 215 1.6 11.3 0.00 0.00 0.00 95 1005.3
20220926045056 7 217 0.0 4.8 0.00 0.00 0.00 95 1005.4
20220926044603 7 219 0.0 4.8 0.00 0.00 0.00 95 1005.4
20220926044056 7 0 0.0 4.8 0.00 0.00 0.00 95 1005.5
20220926043555 7 0 0.0 1.6 0.00 0.00 0.00 95 1005.6
20220926043101 7 0 0.0 1.6 0.00 0.00 0.00 95 1005.6
20220926042600 7 0 0.0 3.2 0.00 0.00 0.00 95 1005.6
20220926042058 7 213 0.0 3.2 0.00 0.00 0.00 96 1005.7
20220926041558 7 0 0.0 3.2 0.00 0.00 0.00 96 1005.8
20220926041100 7 214 0.0 3.2 0.00 0.00 0.00 96 1005.9
20220926040558 7 0 0.0 3.2 0.00 0.00 0.00 96 1005.9
20220926040128 7 216 0.0 4.8 0.00 0.00 0.00 96 1005.9
20220926035601 7 0 0.0 4.8 0.00 0.00 0.00 96 1006.0
20220926035057 7 0 0.0 4.8 0.00 0.00 0.00 96 1006.1
20220926034640 7 0 0.0 4.8 0.00 0.00 0.00 96 1006.1
20220926034057 7 0 0.0 4.8 0.00 0.00 0.00 96 1006.1
20220926033554 7 213 0.0 3.2 0.00 0.00 0.00 96 1006.2
20220926033058 7 0 0.0 3.2 0.00 0.00 0.00 96 1006.2
20220926032556 7 0 0.0 3.2 0.00 0.00 0.00 96 1006.3
20220926032055 7 220 0.0 3.2 0.00 0.00 0.00 96 1006.4
20220926031608 7 0 0.0 3.2 0.00 0.00 0.00 96 1006.5
20220926031055 7 221 0.0 3.2 0.00 0.00 0.00 96 1006.5
20220926030554 7 221 0.0 3.2 0.00 0.00 0.00 96 1006.7
20220926030106 7 0 0.0 8.0 0.00 0.00 0.00 96 1006.7
20220926025555 7 0 0.0 8.0 0.00 0.00 0.00 96 1006.7
20220926025055 7 0 0.0 3.2 0.00 0.00 0.00 96 1006.7
20220926024603 7 0 0.0 4.8 0.00 0.00 0.00 96 1006.8
20220926024100 7 217 0.0 4.8 0.00 0.00 0.00 96 1006.8
20220926023556 7 0 0.0 4.8 0.00 0.00 0.00 96 1007.0
20220926023152 7 0 0.0 6.4 0.00 0.00 0.00 96 1007.0
20220926022554 7 0 0.0 6.4 0.00 0.00 0.00 96 1007.1
20220926022056 7 0 0.0 6.4 0.00 0.00 0.00 96 1007.1
20220926021601 7 0 0.0 8.0 0.00 0.00 0.00 96 1007.2
20220926021103 6 0 1.6 8.0 0.00 0.00 0.00 96 1007.2
20220926020557 6 231 0.0 6.4 0.00 0.00 0.00 96 1007.4
20220926020116 6 229 0.0 6.4 0.00 0.00 0.00 96 1007.3
20220926015558 6 0 0.0 6.4 0.00 0.00 0.00 96 1007.5
20220926015054 6 209 0.0 6.4 0.00 0.00 0.00 96 1007.4
20220926014612 6 213 0.0 4.8 0.00 0.00 0.00 95 1007.4
20220926014054 6 0 0.0 3.2 0.00 0.00 0.00 95 1007.5
20220926013554 6 0 0.0 3.2 0.00 0.00 0.00 95 1007.6
20220926013101 6 0 0.0 3.2 0.00 0.00 0.00 95 1007.6
20220926012554 6 0 0.0 4.8 0.00 0.00 0.00 95 1007.7
20220926012056 6 221 0.0 4.8 0.00 0.00 0.00 95 1007.8
20220926011600 6 227 0.0 4.8 0.00 0.00 0.00 96 1007.9
20220926011056 6 0 0.0 4.8 0.00 0.00 0.00 96 1007.9